Visibility
15.0 15.0 15.0 15.0 15.0 15.0 15.0 15.0 0.1 15.0 15.0 15.0 1.1 0.0 0.0 0.2 0.1 14.0 15.0 15.0 15.0 15.0 15.0 15.0 15.0 15.0 15.0 15.0 15.0 15.0 15.0 15.0 2.7 14.2 15.0 15.0 15.0 15.0 15.0 15.0 15.0 9.8 10.9 13.6
15.0 15.0 15.0 15.0 15.0 15.0 15.0 15.0 15.0 15.0 15.0 0.1 1.0 11.8 0.0 0.0 0.2 15.0 15.0 15.0 15.0 15.0 15.0 15.0 15.0 15.0 15.0 15.0 15.0 15.0 15.0 15.0 15.0 12.2 14.8 15.0 15.0 15.0 15.0 15.0 15.0 9.2 14.8 15.0
15.0 15.0 15.0 15.0 15.0 15.0 15.0 13.4 6.5 15.0 15.0 15.0 0.0 0.0 0.0 0.0 15.0 15.0 15.0 15.0 15.0 15.0 15.0 15.0 15.0 15.0 15.0 15.0 15.0 15.0 15.0 15.0 15.0 15.0 15.0 15.0 15.0 15.0 15.0 15.0 5.4 15.0 15.0 15.0
15.0 15.0 15.0 15.0 15.0 15.0 15.0 13.6 4.6 1.3 4.1 6.7 1.0 2.1 0.2 15.0 15.0 15.0 15.0 15.0 15.0 15.0 15.0 15.0 15.0 15.0 15.0 15.0 15.0 15.0 15.0 15.0 15.0 15.0 15.0 15.0 15.0 15.0 15.0 15.0 15.0 14.7 15.0 15.0
15.0 15.0 15.0 15.0 15.0 15.0 15.0 15.0 0.1 14.8 0.1 15.0 0.1 0.2 0.1 15.0 15.0 15.0 15.0 15.0 15.0 15.0 15.0 15.0 15.0 15.0 15.0 15.0 15.0 15.0 15.0 15.0 15.0 15.0 15.0 15.0 15.0 15.0 15.0 15.0 15.0 15.0 15.0 15.0
15.0 15.0 15.0 15.0 15.0 15.0 15.0 15.0 15.0 1.1 7.4 15.0 0.9 0.3 15.0 15.0 15.0 14.2 15.0 15.0 15.0 15.0 15.0 15.0 15.0 15.0 15.0 15.0 15.0 15.0 15.0 15.0 12.3 11.0 15.0 15.0 14.0 15.0 15.0 15.0 15.0 15.0 15.0 15.0
15.0 15.0 15.0 15.0 15.0 15.0 15.0 15.0 5.3 13.0 15.0 15.0 15.0 15.0 15.0 15.0 15.0 10.4 15.0 15.0 15.0 15.0 15.0 15.0 15.0 15.0 15.0 15.0 15.0 15.0 15.0 15.0 15.0 0.7 15.0 0.3 15.0 15.0 15.0 15.0 15.0 15.0 15.0 15.0
15.0 15.0 15.0 15.0 15.0 15.0 15.0 15.0 0.4 11.1 15.0 12.4 15.0 15.0 15.0 15.0 15.0 15.0 15.0 15.0 15.0 15.0 15.0 15.0 15.0 15.0 15.0 15.0 15.0 15.0 15.0 15.0 15.0 3.9 3.0 15.0 15.0 15.0 15.0 15.0 15.0 15.0 15.0 15.0
15.0 15.0 15.0 15.0 15.0 15.0 15.0 15.0 15.0 2.4 0.2 15.0 15.0 15.0 15.0 15.0 15.0 15.0 15.0 15.0 15.0 15.0 15.0 15.0 15.0 15.0 15.0 15.0 13.7 15.0 15.0 15.0 0.1 15.0 1.8 15.0 15.0 15.0 15.0 15.0 1.8 15.0 15.0 15.0
15.0 15.0 15.0 15.0 15.0 15.0 15.0 15.0 15.0 0.3 14.0 15.0 15.0 13.0 15.0 15.0 15.0 15.0 15.0 15.0 15.0 15.0 15.0 15.0 13.9 15.0 15.0 13.5 15.0 0.0 0.0 0.0 0.0 10.2 6.5 15.0 15.0 15.0 15.0 15.0 15.0 15.0 15.0 15.0
11.9 15.0 15.0 15.0 15.0 15.0 15.0 15.0 15.0 15.0 1.9 15.0 15.0 15.0 15.0 15.0 15.0 15.0 15.0 15.0 15.0 15.0 15.0 15.0 15.0 15.0 15.0 15.0 15.0 15.0 9.5 0.5 4.8 0.9 1.7 0.1 15.0 15.0 15.0 15.0 15.0 15.0 15.0 15.0
13.1 15.0 15.0 15.0 15.0 15.0 15.0 15.0 15.0 15.0 1.2 3.0 15.0 15.0 15.0 15.0 15.0 15.0 15.0 15.0 15.0 15.0 15.0 15.0 15.0 15.0 15.0 15.0 15.0 15.0 2.8 15.0 15.0 15.0 15.0 15.0 15.0 15.0 15.0 15.0 15.0 15.0 15.0 15.0
15.0 15.0 15.0 15.0 15.0 15.0 15.0 15.0 15.0 15.0 1.5 4.7 0.1 15.0 15.0 15.0 15.0 15.0 15.0 15.0 15.0 15.0 15.0 15.0 15.0 15.0 15.0 15.0 15.0 15.0 15.0 15.0 15.0 15.0 15.0 15.0 15.0 15.0 15.0 15.0 15.0 15.0 15.0 15.0
15.0 15.0 15.0 15.0 15.0 15.0 15.0 15.0 15.0 15.0 8.5 0.0 12.0 15.0 11.2 15.0 15.0 15.0 15.0 15.0 15.0 15.0 15.0 15.0 15.0 15.0 15.0 15.0 15.0 15.0 15.0 15.0 15.0 15.0 15.0 15.0 15.0 15.0 15.0 15.0 15.0 15.0 15.0 15.0
15.0 15.0 15.0 15.0 15.0 15.0 15.0 15.0 15.0 15.0 0.8 0.1 5.9 15.0 15.0 15.0 15.0 15.0 15.0 15.0 15.0 15.0 15.0 15.0 15.0 15.0 15.0 15.0 15.0 15.0 15.0 15.0 15.0 15.0 15.0 15.0 15.0 15.0 15.0 15.0 15.0 15.0 15.0 15.0
15.0 15.0 15.0 15.0 15.0 15.0 15.0 15.0 6.5 15.0 15.0 0.1 0.1 15.0 15.0 15.0 15.0 15.0 15.0 15.0 15.0 15.0 15.0 15.0 15.0 15.0 15.0 15.0 15.0 15.0 15.0 15.0 15.0 15.0 15.0 15.0 15.0 15.0 15.0 15.0 15.0 15.0 15.0 15.0
15.0 15.0 14.8 15.0 15.0 11.0 15.0 0.2 0.8 15.0 15.0 0.0 0.0 8.1 15.0 15.0 15.0 15.0 1.2 11.6 15.0 15.0 5.1 2.8 15.0 15.0 13.7 15.0 15.0 15.0 15.0 15.0 15.0 15.0 15.0 15.0 15.0 15.0 15.0 15.0 15.0 15.0 15.0 15.0
15.0 15.0 15.0 11.4 14.6 13.6 15.0 15.0 15.0 15.0 15.0 0.3 0.1 0.1 8.1 15.0 7.7 8.6 14.5 0.7 2.7 2.4 7.6 7.9 15.0 15.0 12.8 0.0 15.0 15.0 15.0 15.0 15.0 15.0 15.0 15.0 15.0 15.0 15.0 15.0 15.0 15.0 15.0 15.0
15.0 15.0 15.0 15.0 15.0 15.0 15.0 15.0 15.0 15.0 1.1 0.1 0.0 0.1 15.0 14.2 13.4 15.0 0.1 15.0 0.1 14.5 0.2 15.0 3.8 11.7 0.0 13.2 15.0 15.0 15.0 15.0 15.0 15.0 15.0 15.0 15.0 15.0 15.0 15.0 15.0 15.0 15.0 15.0
15.0 15.0 15.0 15.0 15.0 11.0 4.7 0.0 0.0 0.1 0.1 0.1 0.0 11.8 0.7 15.0 15.0 14.4 14.1 0.9 0.1 0.0 0.1 0.7 0.1 0.2 13.5 15.0 15.0 15.0 15.0 15.0 15.0 15.0 15.0 15.0 15.0 15.0 15.0 15.0 15.0 15.0 15.0 15.0
15.0 15.0 15.0 15.0 12.5 0.1 0.1 0.1 0.0 0.1 0.0 0.5 3.1 15.0 15.0 15.0 9.5 13.0 14.3 0.2 0.1 0.0 0.0 0.0 0.0 0.0 1.4 15.0 15.0 15.0 15.0 15.0 15.0 15.0 15.0 15.0 15.0 15.0 15.0 15.0 15.0 15.0 15.0 15.0
15.0 15.0 14.4 6.6 1.2 0.1 0.0 0.0 0.0 0.1 0.1 15.0 15.0 15.0 15.0 15.0 15.0 6.4 0.3 0.0 0.0 0.0 0.0 0.0 0.0 0.0 15.0 15.0 15.0 15.0 15.0 15.0 15.0 15.0 15.0 15.0 15.0 15.0 15.0 15.0 15.0 15.0 15.0 15.0
14.7 0.1 0.0 0.0 0.1 0.0 0.1 0.2 0.2 0.1 0.1 0.0 0.0 0.0 0.4 15.0 8.1 0.1 0.1 0.0 0.0 0.1 0.0 0.1 0.0 14.8 15.0 15.0 15.0 15.0 15.0 15.0 15.0 15.0 15.0 15.0 15.0 15.0 15.0 15.0 15.0 15.0 15.0 15.0
3.7 7.6 0.4 0.1 0.1 0.1 0.1 0.1 0.1 0.1 0.0 0.1 0.2 0.0 1.7 4.4 0.1 1.4 0.0 1.7 0.1 0.1 0.1 0.1 0.3 15.0 15.0 15.0 15.0 15.0 10.0 11.1 15.0 15.0 15.0 14.3 12.5 15.0 15.0 15.0 15.0 12.6 15.0 15.0
12.6 0.0 0.5 1.0 0.2 0.0 0.1 0.0 0.0 0.0 0.1 0.1 0.1 0.1 1.3 0.1 0.0 1.5 0.4 4.4 3.7 0.3 0.0 0.1 15.0 15.0 15.0 15.0 15.0 15.0 0.0 0.3 11.4 15.0 14.9 15.0 15.0 15.0 15.0 15.0 15.0 15.0 15.0 15.0
4.9 0.1 0.0 0.2 1.5 0.1 0.1 0.0 0.0 0.4 5.8 0.1 0.1 0.0 0.0 3.5 0.2 0.2 2.9 10.6 15.0 0.1 0.1 15.0 15.0 15.0 15.0 15.0 15.0 15.0 6.8 0.3 4.7 15.0 15.0 12.2 10.6 15.0 15.0 15.0 13.2 15.0 15.0 15.0
7.0 15.0 13.9 3.6 1.9 0.1 0.1 12.0 0.1 15.0 0.1 0.0 0.0 0.0 0.5 0.4 0.1 0.2 1.9 1.3 0.2 13.0 12.0 10.6 15.0 15.0 15.0 15.0 15.0 15.0 15.0 15.0 15.0 15.0 15.0 15.0 15.0 15.0 15.0 15.0 15.0 15.0 15.0 11.7